Regional Weather Roundup
Issued by NWS

Home | Current Version | Previous Version | Graphics & Text | Print | Product List | Glossary On
Versions: 1 2 3 4 5 6 7 8 9 10 11 12 13 14 15 16 17 18 19 20 21 22 23 24 25 26 27 28 29 30 31 32 33 34 35 36 37 38 39 40 41 42 43 44 45 46 47 48 49 50
000
ASUS43 KLMK 291510
RWRKY
KENTUCKY REGIONAL WEATHER ROUNDUP
NATIONAL WEATHER SERVICE LOUISVILLE KY
1100 AM EDT MON MAY 29 2017

NOTE "FAIR" INDICATES FEW OR NO CLOUDS BELOW 12,000 FEET
WITH NO SIGNIFICANT WEATHER AND/OR OBSTRUCTIONS TO VISIBILITY.

KYZ001>023-026-027-061>063-070>075-291600-
WESTERN AND SOUTH CENTRAL KENTUCKY

CITY           SKY/WX    TMP DP  RH WIND       PRES   REMARKS
PADUCAH        SUNNY     76  61  59 W9        29.98R
HENDERSON      SUNNY     75  63  66 SW9       29.96S
OWENSBORO      SUNNY     75  64  68 SW8       29.97S
HOPKINSVILLE   SUNNY     76  60  57 W6        29.99R
BOWLING GREEN  SUNNY     77  62  59 VRB3      29.99R
GLASGOW        SUNNY     75  60  60 W5        30.00R
$$

KYZ024-025-028>034-038-045-046-053-291600-
NORTH CENTRAL KENTUCKY

CITY           SKY/WX    TMP DP  RH WIND       PRES   REMARKS
LOUISVILLE/SDF MOSUNNY   77  63  61 VRB7      29.95F
LOUISVILLE/LOU SUNNY     76  64  66 S8        29.96S
FORT KNOX      SUNNY     75  62  63 W6        29.96S
$$

KYZ035>037-039>044-047>052-055>060-089>105-291600-
NORTHEAST KENTUCKY

CITY           SKY/WX    TMP DP  RH WIND       PRES   REMARKS
LEXINGTON      MOSUNNY   73  62  68 SW7       29.99R
COVINGTON      MOSUNNY   72  63  73 SW8       29.94S
FRANKFORT      CLOUDY    74  61  63 VRB3      29.97R
$$

KYZ054-064>069-076>088-106>120-291600-
SOUTHEAST KENTUCKY

CITY           SKY/WX    TMP DP  RH WIND       PRES   REMARKS
JACKSON        CLOUDY    67  62  84 CALM      30.02R
LONDON         CLOUDY    69  61  75 VRB3      30.02S
SOMERSET       MOSUNNY   68  61  77 CALM      30.02S
MIDDLESBORO    PTSUNNY   73  60  63 CALM      30.01S
MONTICELLO     CLOUDY    70  63  78 N8        30.03S
$$





USA.gov is the U.S. government's official web portal to all federal, state and local government web resources and services.